BAW127 DNAA-EGKK

Flight info

Callsign BAW127
Flight time N/A
Altitude 37000
Route OXORU1Q OXORU V456 KUA R778 KAN A604 MIMBA UA604 MOLIT DCT AS UA604 TMS A615 GHA UB726 BSA UJ66 ALR UG30 SADAF N856 UMURE N863 GIROM DCT AGN DCT SECHE DCT UVELI DCT CNA DCT MANAK UY110 REVTU UP88 GOKTU P88 VASUX
Aircraft A35K/H-SDE2E3GHIJ3J4J5LM1ORWXY/LB1D1

Departure

Time 2026-04-25 09:47
Airport Nnamdi Azikiwe International Airport (DNAA)

Arrival

Time N/A
Airport London Gatwick Airport (EGKK)
Time Latitude Longitude Altitude Speed Heading
2026-04-25 09:31 9.00833 7.26821 1130 ft 0 kts
2026-04-25 09:38 9.00830 7.26821 1130 ft 2 kts
2026-04-25 09:38 9.00814 7.26823 1135 ft 2 kts 340°
2026-04-25 09:38 9.00800 7.26832 1131 ft 2 kts 306°
2026-04-25 09:39 9.00793 7.26847 1134 ft 2 kts 279°
2026-04-25 09:39 9.00793 7.26850 1131 ft 2 kts 277°
2026-04-25 09:39 9.00792 7.26856 1127 ft 2 kts 274°
2026-04-25 09:40 9.00792 7.26862 1130 ft 0 kts 272°
2026-04-25 09:43 9.00792 7.26861 1130 ft 1 kts 272°
2026-04-25 09:43 9.00792 7.26848 1130 ft 3 kts 272°
2026-04-25 09:43 9.00793 7.26806 1132 ft 9 kts 271°
2026-04-25 09:43 9.00793 7.26726 1132 ft 14 kts 269°
2026-04-25 09:44 9.00835 7.26645 1130 ft 14 kts 358°
2026-04-25 09:44 9.00936 7.26703 1117 ft 20 kts 34°
2026-04-25 09:44 9.01065 7.26794 1117 ft 24 kts 36°
2026-04-25 09:44 9.01210 7.26898 1136 ft 27 kts 35°
2026-04-25 09:45 9.01373 7.27012 1134 ft 30 kts 34°
2026-04-25 09:45 9.01555 7.27141 1137 ft 34 kts 35°
2026-04-25 09:45 9.01754 7.27281 1138 ft 35 kts 35°
2026-04-25 09:45 9.01941 7.27331 1139 ft 28 kts 319°
2026-04-25 09:46 9.01943 7.27203 1137 ft 18 kts 211°
2026-04-25 09:46 9.01838 7.27135 1137 ft 19 kts 214°
2026-04-25 09:46 9.01616 7.26978 1138 ft 75 kts 214°
2026-04-25 09:46 9.00948 7.26508 1110 ft 157 kts 215°
2026-04-25 09:47 8.99928 7.25784 1628 ft 184 kts 215°
2026-04-25 09:47 8.98881 7.25028 2656 ft 189 kts 216°
2026-04-25 09:47 8.97890 7.24083 3438 ft 203 kts 240°
2026-04-25 09:47 8.97671 7.22667 3857 ft 217 kts 277°
2026-04-25 09:48 8.98366 7.21279 4187 ft 229 kts 314°
2026-04-25 09:48 8.99754 7.20488 4730 ft 232 kts 340°
2026-04-25 09:48 9.01348 7.20039 4957 ft 252 kts 349°
2026-04-25 09:48 9.03209 7.19925 4982 ft 278 kts
2026-04-25 09:49 9.05118 7.20279 5595 ft 278 kts 12°
2026-04-25 09:49 9.07012 7.20712 6557 ft 279 kts 13°
2026-04-25 09:49 9.08884 7.21147 7890 ft 273 kts 13°
2026-04-25 09:49 9.10737 7.21563 9125 ft 273 kts 13°
2026-04-25 09:50 9.12601 7.21964 10195 ft 276 kts 13°
2026-04-25 09:50 9.14547 7.22373 10786 ft 296 kts 13°
2026-04-25 09:50 9.16641 7.22813 11184 ft 319 kts 13°
2026-04-25 09:50 9.18886 7.23281 11588 ft 340 kts 13°
2026-04-25 09:51 9.21236 7.23765 11984 ft 359 kts 13°
2026-04-25 09:51 9.23767 7.24283 12491 ft 373 kts 13°
2026-04-25 09:51 9.26305 7.24800 13159 ft 381 kts 13°
2026-04-25 09:51 9.28934 7.25335 13856 ft 389 kts 13°
2026-04-25 09:52 9.31617 7.25881 14512 ft 396 kts 13°
2026-04-25 09:52 9.34338 7.26435 15175 ft 402 kts 13°
2026-04-25 09:52 9.37099 7.26996 15851 ft 408 kts 12°
2026-04-25 09:52 9.39891 7.27564 16518 ft 413 kts 12°
2026-04-25 09:53 9.42738 7.28146 17171 ft 419 kts 12°
2026-04-25 09:53 9.45616 7.28734 17783 ft 425 kts 12°
2026-04-25 09:53 9.48530 7.29328 18340 ft 429 kts 12°
2026-04-25 09:53 9.51471 7.29928 18803 ft 434 kts 12°
2026-04-25 09:54 9.54452 7.30534 19273 ft 438 kts 11°
2026-04-25 09:54 9.57455 7.31146 19726 ft 442 kts 11°
2026-04-25 09:54 9.60479 7.31763 20132 ft 446 kts 11°
2026-04-25 09:54 9.63537 7.32386 20554 ft 449 kts 11°
2026-04-25 09:55 9.66607 7.33013 20982 ft 452 kts 11°
2026-04-25 09:55 9.69702 7.33644 21426 ft 455 kts 11°
2026-04-25 09:55 9.72814 7.34280 21859 ft 458 kts 11°
2026-04-25 09:55 9.75951 7.34920 22300 ft 461 kts 10°
2026-04-25 09:56 9.79101 7.35563 22766 ft 464 kts 10°
2026-04-25 09:56 9.82285 7.36214 23186 ft 468 kts 10°
2026-04-25 09:56 9.85486 7.36858 23592 ft 471 kts
2026-04-25 09:56 9.88734 7.37358 23946 ft 473 kts
2026-04-25 09:57 9.92008 7.37752 24296 ft 475 kts
2026-04-25 09:57 9.95308 7.38093 24666 ft 478 kts
2026-04-25 09:57 9.98624 7.38413 25054 ft 480 kts
2026-04-25 09:57 10.01964 7.38735 25447 ft 483 kts
2026-04-25 09:58 10.05313 7.39064 25854 ft 485 kts
2026-04-25 09:58 10.08676 7.39403 26282 ft 488 kts
2026-04-25 09:58 10.12060 7.39751 26709 ft 490 kts
2026-04-25 09:58 10.15465 7.40105 27140 ft 493 kts
2026-04-25 09:59 10.18888 7.40464 27560 ft 496 kts
2026-04-25 09:59 10.22331 7.40826 27986 ft 498 kts
2026-04-25 09:59 10.25787 7.41189 28407 ft 501 kts
2026-04-25 09:59 10.29263 7.41556 28818 ft 504 kts
2026-04-25 10:00 10.32763 7.41924 29208 ft 506 kts
2026-04-25 10:00 10.36274 7.42292 29591 ft 509 kts
2026-04-25 10:00 10.39807 7.42666 29948 ft 512 kts
2026-04-25 10:00 10.43358 7.43041 30243 ft 515 kts
2026-04-25 10:01 10.46936 7.43416 30502 ft 518 kts
2026-04-25 10:01 10.50476 7.43787 30839 ft 518 kts
2026-04-25 10:01 10.54102 7.44192 31221 ft 519 kts
2026-04-25 10:01 10.57592 7.44940 31553 ft 521 kts 15°
2026-04-25 10:02 10.60985 7.46225 31929 ft 522 kts 24°
2026-04-25 10:02 10.64138 7.48044 32310 ft 522 kts 32°
2026-04-25 10:02 10.67149 7.50108 32721 ft 521 kts 34°
2026-04-25 10:02 10.70100 7.52251 33104 ft 521 kts 36°
2026-04-25 10:03 10.73025 7.54431 33478 ft 521 kts 36°
2026-04-25 10:03 10.75936 7.56613 33871 ft 520 kts 36°
2026-04-25 10:03 10.78844 7.58785 34193 ft 519 kts 36°
2026-04-25 10:03 10.81757 7.60947 34515 ft 518 kts 35°
2026-04-25 10:04 10.84676 7.63101 34858 ft 517 kts 35°
2026-04-25 10:04 10.87582 7.65237 35212 ft 515 kts 35°
2026-04-25 10:04 10.90488 7.67369 35560 ft 514 kts 35°
2026-04-25 10:04 10.93381 7.69490 35884 ft 513 kts 34°
2026-04-25 10:05 10.96270 7.71607 36199 ft 511 kts 34°
2026-04-25 10:05 10.99152 7.73721 36510 ft 510 kts 34°
2026-04-25 10:05 11.02029 7.75833 36819 ft 510 kts 34°
2026-04-25 10:05 11.04915 7.77953 36904 ft 513 kts 34°
2026-04-25 10:06 11.10708 7.82208 36903 ft 513 kts 34°
2026-04-25 10:06 11.16495 7.86458 36904 ft 513 kts 34°
2026-04-25 10:07 11.22282 7.90712 36887 ft 513 kts 34°
2026-04-25 10:07 11.28083 7.94966 36894 ft 513 kts 34°
2026-04-25 10:08 11.33905 7.99172 36876 ft 513 kts 34°
2026-04-25 10:08 11.38755 8.02662 36871 ft 513 kts 34°
2026-04-25 10:09 11.44581 8.06862 36890 ft 513 kts 34°
2026-04-25 10:09 11.50411 8.11073 36868 ft 513 kts 34°
2026-04-25 10:10 11.56235 8.15283 36865 ft 513 kts 34°
2026-04-25 10:10 11.62060 8.19496 36880 ft 513 kts 34°
2026-04-25 10:11 11.67885 8.23712 36862 ft 513 kts 34°
2026-04-25 10:11 11.73710 8.27930 36865 ft 513 kts 34°
2026-04-25 10:12 11.79529 8.32145 36857 ft 513 kts 34°
2026-04-25 10:13 11.88269 8.38480 36874 ft 514 kts 34°
2026-04-25 10:13 11.94090 8.42702 36869 ft 514 kts 34°
2026-04-25 10:14 12.00083 8.46652 36851 ft 511 kts 24°
2026-04-25 10:14 12.06807 8.48787 36856 ft 505 kts
2026-04-25 10:15 12.13786 8.48747 36859 ft 501 kts 353°
2026-04-25 10:15 12.20728 8.48050 36850 ft 501 kts 351°
2026-04-25 10:16 12.27670 8.47271 36848 ft 502 kts 351°
2026-04-25 10:16 12.34618 8.46545 36853 ft 502 kts 352°
2026-04-25 10:17 12.41532 8.45860 36861 ft 503 kts 352°
2026-04-25 10:17 12.48543 8.45172 36850 ft 503 kts 352°
2026-04-25 10:18 12.55464 8.44488 36852 ft 503 kts 352°
2026-04-25 10:18 12.62427 8.43801 36847 ft 503 kts 352°
2026-04-25 10:19 12.69391 8.43115 36845 ft 503 kts 352°
2026-04-25 10:19 12.76352 8.42427 36842 ft 503 kts 352°
2026-04-25 10:20 12.83318 8.41736 36842 ft 503 kts 352°
2026-04-25 10:20 12.90279 8.41044 36841 ft 503 kts 352°
2026-04-25 10:21 12.97240 8.40353 36842 ft 502 kts 351°
2026-04-25 10:21 13.04195 8.39662 36841 ft 502 kts 351°
2026-04-25 10:22 13.11141 8.38981 36842 ft 502 kts 352°
2026-04-25 10:22 13.18092 8.38331 36841 ft 501 kts 352°
2026-04-25 10:23 13.24996 8.37693 36840 ft 501 kts 352°
2026-04-25 10:23 13.31937 8.37048 36838 ft 500 kts 352°
2026-04-25 10:24 13.38865 8.36401 36836 ft 500 kts 351°
2026-04-25 10:24 13.45793 8.35753 36834 ft 499 kts 351°
2026-04-25 10:25 13.52711 8.35106 36835 ft 499 kts 351°
2026-04-25 10:25 13.59617 8.34459 36830 ft 498 kts 351°
2026-04-25 10:26 13.66524 8.33811 36835 ft 498 kts 351°
2026-04-25 10:26 13.73422 8.33165 36834 ft 498 kts 351°
2026-04-25 10:27 13.80319 8.32518 36834 ft 498 kts 351°
2026-04-25 10:27 13.87219 8.31871 36831 ft 497 kts 351°
2026-04-25 10:28 13.94109 8.31224 36831 ft 497 kts 351°
2026-04-25 10:28 14.00995 8.30577 36830 ft 497 kts 351°
2026-04-25 10:29 14.07841 8.29934 36827 ft 497 kts 351°
2026-04-25 10:29 14.14773 8.29282 36827 ft 497 kts 351°
2026-04-25 10:30 14.21611 8.28639 36831 ft 497 kts 351°
2026-04-25 10:30 14.28488 8.27991 36826 ft 496 kts 351°
2026-04-25 10:31 14.35365 8.27343 36823 ft 496 kts 351°
2026-04-25 10:31 14.42250 8.26694 36823 ft 496 kts 351°
2026-04-25 10:32 14.49124 8.26045 36822 ft 496 kts 351°
2026-04-25 10:32 14.56000 8.25396 36826 ft 496 kts 350°
2026-04-25 10:33 14.62863 8.24748 36826 ft 496 kts 350°
2026-04-25 10:33 14.69734 8.24098 36819 ft 495 kts 350°
2026-04-25 10:34 14.76602 8.23448 36817 ft 495 kts 350°
2026-04-25 10:34 14.83480 8.22792 36811 ft 500 kts 351°
2026-04-25 10:35 14.90419 8.22135 36812 ft 502 kts 351°
2026-04-25 10:35 14.97375 8.21479 36817 ft 502 kts 350°
2026-04-25 10:36 15.04339 8.20820 36816 ft 502 kts 350°
2026-04-25 10:36 15.11292 8.20161 36804 ft 502 kts 350°
2026-04-25 10:37 15.18250 8.19500 36817 ft 503 kts 350°
2026-04-25 10:37 15.25228 8.18837 36815 ft 503 kts 350°
2026-04-25 10:38 15.32190 8.18175 36807 ft 503 kts 350°
2026-04-25 10:38 15.39160 8.17512 36813 ft 503 kts 350°
2026-04-25 10:39 15.46123 8.16849 36807 ft 503 kts 350°
2026-04-25 10:39 15.53093 8.16185 36814 ft 503 kts 350°
2026-04-25 10:40 15.60017 8.15525 36809 ft 503 kts 349°
2026-04-25 10:40 15.66984 8.14861 36802 ft 503 kts 349°
2026-04-25 10:41 15.73957 8.14195 36817 ft 503 kts 349°
2026-04-25 10:41 15.80922 8.13530 36803 ft 503 kts 349°
2026-04-25 10:42 15.87894 8.12863 36806 ft 503 kts 349°
2026-04-25 10:42 15.94866 8.12196 36807 ft 503 kts 349°
2026-04-25 10:43 16.01835 8.11529 36802 ft 503 kts 349°
2026-04-25 10:43 16.08803 8.10861 36802 ft 503 kts 349°
2026-04-25 10:44 16.15772 8.10194 36798 ft 503 kts 349°
2026-04-25 10:44 16.22742 8.09525 36797 ft 503 kts 349°
2026-04-25 10:45 16.29705 8.08857 36795 ft 503 kts 349°
2026-04-25 10:45 16.36675 8.08187 36790 ft 503 kts 349°
2026-04-25 10:46 16.43645 8.07517 36792 ft 503 kts 349°
2026-04-25 10:46 16.48256 8.07074 36789 ft 503 kts 349°